EW3883 Weather Reports


Display with metric or nautical units.
time (UTC)temp
F
wind
direction
speed
MPH
gust
MPH
rain 1hr
in
rain 24hr
in
rain mn
in
humidity
%
barometer
mb
20260505120107 58 0 0.0 1.0 0.00 0.16 0.16 99 1010.5
20260505115539 57 0 0.0 1.0 0.00 0.16 0.16 99 1010.7
20260505115039 57 0 0.0 1.0 0.01 0.16 0.16 99 1010.5
20260505114557 57 0 0.0 1.0 0.01 0.16 0.16 99 1010.3
20260505114037 57 0 0.0 1.0 0.01 0.16 0.16 99 1010.1
20260505113540 57 0 0.0 1.0 0.01 0.16 0.16 99 1010.2
20260505113101 57 0 0.0 1.0 0.01 0.16 0.16 98 1010.1
20260505112539 57 0 0.0 1.0 0.01 0.16 0.16 98 1009.9
20260505112038 57 0 0.0 1.0 0.01 0.16 0.16 98 1010.0
20260505111552 57 0 0.0 1.0 0.01 0.16 0.16 98 1009.7
20260505111042 57 0 0.0 1.0 0.02 0.16 0.16 98 1009.3
20260505110536 57 0 0.0 1.0 0.04 0.16 0.16 98 1009.3
20260505102038 58 0 0.0 0.0 0.12 0.15 0.15 95 1010.2
20260505101551 58 0 0.0 0.0 0.13 0.15 0.15 94 1010.4
20260505101038 58 0 0.0 1.0 0.13 0.14 0.14 94 1010.7
20260505100537 58 0 0.0 1.0 0.11 0.12 0.12 94 1010.9
20260505100052 58 0 0.0 1.0 0.10 0.10 0.10 93 1010.9
20260505095538 59 0 0.0 2.0 0.08 0.08 0.08 92 1011.0
20260505095038 59 0 0.0 3.0 0.07 0.07 0.07 92 1011.0
20260505094550 59 0 0.0 3.0 0.05 0.05 0.05 91 1010.9
20260505094038 59 288 0.0 4.0 0.05 0.05 0.05 90 1010.8
20260505093539 60 0 0.0 4.0 0.04 0.04 0.04 88 1010.9
20260505093055 60 0 1.0 4.0 0.04 0.04 0.04 85 1010.6
20260505092539 61 0 0.0 2.0 0.03 0.03 0.03 84 1010.3
20260505092044 62 51 0.0 1.0 0.03 0.03 0.03 82 1009.9
20260505091550 63 0 0.0 1.0 0.01 0.01 0.01 79 1009.5
20260505091038 63 0 0.0 1.0 0.01 0.01 0.01 76 1009.4
20260505090539 64 0 0.0 1.0 0.01 0.01 0.01 74 1009.3
20260505090055 64 0 0.0 1.0 0.00 0.00 0.00 70 1009.2
20260505085542 64 0 0.0 1.0 0.00 0.00 0.00 71 1009.0
20260505085042 64 0 0.0 1.0 0.00 0.00 0.00 71 1008.9
20260505084556 64 0 0.0 0.0 0.00 0.00 0.00 70 1008.8
20260505084038 64 0 0.0 0.0 0.00 0.00 0.00 70 1008.7
20260505083544 64 0 0.0 1.0 0.00 0.00 0.00 70 1008.7
20260505083101 64 0 0.0 1.0 0.00 0.00 0.00 70 1008.6
20260505082538 64 0 0.0 1.0 0.00 0.00 0.00 70 1008.5
20260505082038 64 0 0.0 1.0 0.00 0.00 0.00 69 1008.5
20260505081544 64 0 0.0 1.0 0.00 0.00 0.00 69 1008.3
20260505081039 64 0 0.0 1.0 0.00 0.00 0.00 68 1008.2
20260505080536 64 0 0.0 2.0 0.00 0.00 0.00 69 1008.0
20260505080050 64 0 0.0 2.0 0.00 0.00 0.00 68 1008.0
20260505075541 65 123 0.0 1.0 0.00 0.00 0.00 68 1008.1
20260505075039 65 0 0.0 1.0 0.00 0.00 0.00 67 1008.1
20260505074549 65 126 0.0 1.0 0.00 0.00 0.00 67 1008.2
20260505074039 65 0 0.0 1.0 0.00 0.00 0.00 67 1008.2
20260505073539 65 0 0.0 1.0 0.00 0.00 0.00 67 1008.0
20260505073044 65 0 0.0 1.0 0.00 0.00 0.00 67 1008.0
20260505072535 65 0 0.0 1.0 0.00 0.00 0.00 67 1007.8
20260505072038 65 0 0.0 2.0 0.00 0.00 0.00 66 1007.7
20260505071545 65 0 0.0 5.0 0.00 0.00 0.00 67 1007.6
20260505071039 65 0 0.0 5.0 0.00 0.00 0.00 66 1007.5
20260505070536 65 112 0.0 3.0 0.00 0.00 0.00 66 1007.6
20260505070059 65 89 0.0 3.0 0.00 0.00 0.00 66 1007.6
20260505065536 65 115 0.0 3.0 0.00 0.00 0.00 66 1007.7
20260505065038 65 0 0.0 3.0 0.00 0.00 0.00 66 1007.8
20260505064556 65 0 0.0 3.0 0.00 0.00 0.00 66 1007.7
20260505064035 66 71 0.0 4.0 0.00 0.00 0.00 66 1007.7
20260505063538 66 0 0.0 4.0 0.00 0.00 0.00 66 1007.8
20260505063051 66 0 0.0 3.0 0.00 0.00 0.00 66 1007.7
20260505062539 66 82 0.0 3.0 0.00 0.00 0.00 66 1007.6
20260505062037 65 66 0.0 3.0 0.00 0.00 0.00 66 1007.7
20260505061610 65 53 0.0 2.0 0.00 0.00 0.00 66 1007.7
20260505061039 65 0 0.0 2.0 0.00 0.00 0.00 66 1007.8
20260505060539 65 64 0.0 2.0 0.00 0.00 0.00 66 1007.7
20260505060054 65 51 0.0 2.0 0.00 0.00 0.00 66 1007.6
20260505055539 65 0 0.0 1.0 0.00 0.00 0.00 66 1007.5
20260505055041 66 0 0.0 2.0 0.00 0.00 0.00 66 1007.3
20260505054554 66 48 0.0 4.0 0.00 0.00 0.00 66 1007.3
20260505054038 66 52 0.0 4.0 0.00 0.00 0.00 66 1007.2
20260505053539 66 119 0.0 4.0 0.00 0.00 0.00 66 1007.2
20260505053046 66 68 0.0 4.0 0.00 0.00 0.00 66 1007.2
20260505052537 66 360 0.0 2.0 0.00 0.00 0.00 65 1007.2
20260505052037 66 0 0.0 2.0 0.00 0.00 0.00 66 1007.1
20260505051544 66 110 0.0 2.0 0.00 0.00 0.00 65 1007.2
20260505051038 67 132 0.0 1.0 0.00 0.00 0.00 65 1007.1
20260505050536 67 0 0.0 4.0 0.00 0.00 0.00 65 1007.2
20260505041556 67 7 0.0 3.0 0.00 0.00 0.00 65 1007.8
20260505041039 67 41 0.0 3.0 0.00 0.00 0.00 66 1007.7
20260505040536 67 75 0.0 2.0 0.00 0.00 0.00 66 1007.8
20260505040057 67 160 0.0 1.0 0.00 0.00 0.00 66 1007.8
20260505035536 67 0 0.0 2.0 0.00 0.00 0.00 66 1007.8
20260505035040 67 94 0.0 2.0 0.00 0.00 0.00 66 1007.9
20260505034548 67 81 0.0 1.0 0.00 0.00 0.00 66 1007.8
20260505034036 67 0 0.0 2.0 0.00 0.00 0.00 67 1007.9
20260505033536 67 0 0.0 2.0 0.00 0.00 0.00 67 1007.9
20260505033049 67 139 0.0 1.0 0.00 0.00 0.00 67 1007.8
20260505032539 67 0 0.0 2.0 0.00 0.00 0.00 67 1007.8
20260505032037 67 117 0.0 2.0 0.00 0.00 0.00 67 1007.8
20260505031551 67 92 0.0 2.0 0.00 0.00 0.00 67 1007.8
20260505031038 67 0 0.0 1.0 0.00 0.00 0.00 67 1007.7
20260505030540 67 82 0.0 1.0 0.00 0.00 0.00 67 1007.7
20260505030055 67 0 0.0 1.0 0.00 0.00 0.00 67 1007.7
20260505025537 67 0 0.0 1.0 0.00 0.00 0.00 67 1007.6
20260505025038 67 79 0.0 1.0 0.00 0.00 0.00 67 1007.5
20260505024541 67 0 0.0 2.0 0.00 0.00 0.00 67 1007.5
20260505024038 67 0 0.0 2.0 0.00 0.00 0.00 67 1007.4
20260505023540 67 0 0.0 1.0 0.00 0.00 0.00 67 1007.4
20260505023044 67 0 0.0 1.0 0.00 0.00 0.00 67 1007.3
20260505022535 67 0 0.0 1.0 0.00 0.00 0.00 68 1007.3
20260505022042 67 0 0.0 1.0 0.00 0.00 0.00 68 1007.2
20260505021550 67 0 0.0 1.0 0.00 0.00 0.00 68 1007.2
20260505021038 67 0 0.0 1.0 0.00 0.00 0.00 68 1007.2
20260505020539 67 0 0.0 1.0 0.00 0.00 0.00 67 1007.0
20260505020047 68 117 0.0 1.0 0.00 0.00 0.00 67 1007.0
20260505015539 68 122 0.0 1.0 0.00 0.00 0.00 67 1006.8
20260505015039 68 122 0.0 1.0 0.00 0.00 0.00 66 1006.8
20260505014546 68 0 0.0 1.0 0.00 0.00 0.00 66 1006.7
20260505014038 68 117 0.0 1.0 0.00 0.00 0.00 66 1006.6
20260505013538 68 0 0.0 1.0 0.00 0.00 0.00 66 1006.5
20260505013045 68 0 0.0 1.0 0.00 0.00 0.00 66 1006.6
20260505012535 68 0 0.0 1.0 0.00 0.00 0.00 65 1006.6
20260505012039 69 0 0.0 1.0 0.00 0.00 0.00 65 1006.5
20260505011546 69 0 0.0 1.0 0.00 0.00 0.00 65 1006.5
20260505011040 69 0 0.0 1.0 0.00 0.00 0.00 64 1006.4
20260505010538 69 105 0.0 1.0 0.00 0.00 0.00 64 1006.5
20260505010104 69 0 0.0 1.0 0.00 0.00 0.00 64 1006.4
20260505005539 70 0 0.0 1.0 0.00 0.00 0.00 63 1006.4
20260505005039 70 0 0.0 1.0 0.00 0.00 0.00 63 1006.4
20260505004549 70 0 0.0 1.0 0.00 0.00 0.00 62 1006.4
20260505004037 70 0 0.0 1.0 0.00 0.00 0.00 62 1006.5
20260505003541 70 0 0.0 3.0 0.00 0.00 0.00 62 1006.5
20260505003044 70 0 0.0 3.0 0.00 0.00 0.00 61 1006.4
20260505002535 71 0 0.0 2.0 0.00 0.00 0.00 61 1006.4
20260505002039 71 0 0.0 2.0 0.00 0.00 0.00 60 1006.4
20260505001553 71 0 0.0 1.0 0.00 0.00 0.00 59 1006.5
20260505001037 71 0 0.0 1.0 0.00 0.00 0.00 59 1006.5
20260505000538 72 0 0.0 1.0 0.00 0.00 0.00 59 1006.5
20260505000100 72 137 0.0 1.0 0.00 0.00 0.00 58 1006.6
20260504235540 72 0 0.0 1.0 0.00 0.00 0.00 57 1006.6
20260504235038 73 134 0.0 1.0 0.00 0.00 0.00 57 1006.8
20260504234602 73 101 0.0 2.0 0.00 0.00 0.00 57 1006.8
20260504234038 73 136 0.0 2.0 0.00 0.00 0.00 55 1006.8
20260504233539 73 0 0.0 2.0 0.00 0.00 0.00 55 1007.0
20260504233045 74 77 0.0 2.0 0.00 0.00 0.00 55 1007.0
20260504232540 74 3 0.0 2.0 0.00 0.00 0.00 55 1007.1
20260504232041 74 77 0.0 3.0 0.00 0.00 0.00 54 1007.1
20260504231544 74 0 0.0 3.0 0.00 0.00 0.00 54 1007.2
20260504231035 74 0 0.0 2.0 0.00 0.00 0.00 53 1007.3
20260504230536 75 1 0.0 4.0 0.00 0.00 0.00 51 1007.3
20260504230044 75 96 0.0 4.0 0.00 0.00 0.00 51 1007.4
20260504225540 75 0 0.0 4.0 0.00 0.00 0.00 51 1007.4
20260504225035 75 0 0.0 4.0 0.00 0.00 0.00 50 1007.5
20260504224554 76 51 0.0 5.0 0.00 0.00 0.00 48 1007.5
20260504224039 76 46 0.0 5.0 0.00 0.00 0.00 48 1007.4
20260504223539 76 44 1.0 3.0 0.00 0.00 0.00 50 1007.3
20260504223047 76 0 0.0 4.0 0.00 0.00 0.00 51 1007.4
20260504222535 76 0 0.0 4.0 0.00 0.00 0.00 50 1007.5
20260504222037 75 120 0.0 4.0 0.00 0.00 0.00 51 1007.4
20260504221547 76 115 0.0 3.0 0.00 0.00 0.00 52 1007.4
20260504221038 76 65 0.0 2.0 0.00 0.00 0.00 52 1007.5
20260504220539 76 6 0.0 3.0 0.00 0.00 0.00 54 1007.4
20260504220100 76 85 0.0 3.0 0.00 0.00 0.00 56 1007.4
20260504215539 75 0 0.0 1.0 0.00 0.00 0.00 54 1007.3
20260504215039 76 0 0.0 1.0 0.00 0.00 0.00 57 1007.6
20260504214556 76 0 0.0 1.0 0.00 0.00 0.00 59 1007.7
20260504214039 76 0 0.0 1.0 0.00 0.00 0.00 56 1007.7
20260504213539 77 0 0.0 1.0 0.00 0.00 0.00 55 1007.7
20260504213108 77 0 0.0 2.0 0.00 0.00 0.00 53 1007.9
20260504212538 78 0 0.0 2.0 0.00 0.00 0.00 53 1007.8
20260504212035 78 115 0.0 1.0 0.00 0.00 0.00 53 1007.9
20260504211547 79 0 0.0 1.0 0.00 0.00 0.00 51 1008.1
20260504211039 79 0 0.0 1.0 0.00 0.00 0.00 53 1008.2
20260504210538 80 0 0.0 1.0 0.00 0.00 0.00 51 1008.3
20260504210059 80 0 0.0 1.0 0.00 0.00 0.00 52 1008.3
20260504205536 80 0 0.0 4.0 0.00 0.00 0.00 49 1008.2
20260504205039 80 0 0.0 4.0 0.00 0.00 0.00 48 1008.3
20260504204600 81 125 0.0 2.0 0.00 0.00 0.00 49 1008.3
20260504204037 80 0 0.0 4.0 0.00 0.00 0.00 51 1008.4
20260504203535 80 0 0.0 4.0 0.00 0.00 0.00 50 1008.5
20260504203052 80 66 0.0 4.0 0.00 0.00 0.00 50 1008.5
20260504202539 79 0 0.0 3.0 0.00 0.00 0.00 52 1008.6
20260504202038 79 0 0.0 3.0 0.00 0.00 0.00 53 1008.7
20260504201553 78 71 0.0 2.0 0.00 0.00 0.00 52 1008.8
20260504201037 77 0 0.0 3.0 0.00 0.00 0.00 58 1008.8
20260504200536 77 56 0.0 4.0 0.00 0.00 0.00 56 1009.0
20260504200054 77 0 0.0 4.0 0.00 0.00 0.00 54 1009.0
20260504195535 78 143 0.0 2.0 0.00 0.00 0.00 55 1009.0
20260504195035 78 0 0.0 2.0 0.00 0.00 0.00 54 1009.1
20260504194557 78 65 0.0 2.0 0.00 0.00 0.00 57 1009.1
20260504194039 78 111 0.0 2.0 0.00 0.00 0.00 55 1009.2
20260504193536 77 0 0.0 2.0 0.00 0.00 0.00 59 1009.3
20260504193104 77 226 0.0 3.0 0.00 0.00 0.00 58 1009.4
20260504192537 76 56 0.0 3.0 0.00 0.00 0.00 60 1009.5
20260504192040 76 0 0.0 1.0 0.00 0.00 0.00 60 1009.6
20260504191553 75 0 0.0 1.0 0.00 0.00 0.00 65 1009.8
20260504191038 74 0 0.0 2.0 0.00 0.00 0.00 65 1009.8
20260504190536 73 0 0.0 2.0 0.00 0.00 0.00 61 1009.7
20260504190054 74 0 0.0 3.0 0.00 0.00 0.00 62 1009.8
20260504185535 73 183 0.0 3.0 0.00 0.00 0.00 63 1009.9
20260504185035 73 0 0.0 2.0 0.00 0.00 0.00 65 1010.0
20260504184545 72 0 0.0 2.0 0.00 0.00 0.00 65 1010.1
20260504184037 71 0 0.0 1.0 0.00 0.00 0.00 66 1009.9
20260504183536 71 0 0.0 2.0 0.00 0.00 0.00 68 1010.0
20260504183056 71 0 0.0 2.0 0.00 0.00 0.00 67 1010.1
20260504182535 71 0 0.0 3.0 0.00 0.00 0.00 66 1010.0
20260504182035 71 0 0.0 4.0 0.00 0.00 0.00 66 1010.1
20260504181544 72 0 0.0 4.0 0.00 0.00 0.00 65 1010.0
20260504181038 72 0 0.0 4.0 0.00 0.00 0.00 65 1009.9
20260504180536 71 0 0.0 2.0 0.00 0.00 0.00 67 1009.9
20260504180110 71 0 0.0 2.0 0.00 0.00 0.00 69 1009.9
20260504175541 70 0 0.0 2.0 0.00 0.00 0.00 66 1009.8
20260504175036 71 0 0.0 3.0 0.00 0.00 0.00 64 1009.8
20260504174548 71 118 0.0 4.0 0.00 0.00 0.00 64 1009.8
20260504174039 71 83 1.0 4.0 0.00 0.00 0.00 64 1009.7
20260504173538 72 0 0.0 3.0 0.00 0.00 0.00 63 1009.5
20260504173052 72 126 0.0 3.0 0.00 0.00 0.00 65 1009.6
20260504172535 72 106 0.0 3.0 0.00 0.00 0.00 66 1009.6
20260504172039 72 140 0.0 3.0 0.00 0.00 0.00 65 1009.6
20260504171553 71 0 1.0 3.0 0.00 0.00 0.00 67 1009.6
20260504171036 71 90 0.0 2.0 0.00 0.00 0.00 68 1009.6
20260504170535 70 0 0.0 3.0 0.00 0.00 0.00 68 1009.7
20260504151039 68 124 0.0 2.0 0.00 0.00 0.00 69 1010.6
20260504150541 68 126 0.0 1.0 0.00 0.00 0.00 72 1010.5
20260504141035 63 0 0.0 2.0 0.00 0.00 0.00 72 1010.4
20260504140535 62 0 0.0 2.0 0.00 0.00 0.00 74 1010.5
20260504130539 56 0 0.0 3.0 0.00 0.00 0.00 79 1010.9